Theta_e
322 322 322 322 322 322 322 322 322 322 322 322 322 322 323 322 322 322 323 323 323 323 324 324 325 326 326 327 327 326 323 329 328 328 323 330 346 353 361 367 366 362 362 351 348 345 342 343 343 344 344 344 340 339 338 344 344 341 325 320 317 319 320 326 324 327 331 330 333 335 336 336 332 335 338 344 340 340 340 339 344 346 349 352 353 355 355 353
322 322 322 322 322 322 322 322 322 322 322 322 322 322 322 322 322 322 322 322 323 323 323 324 325 326 326 327 328 326 326 328 328 325 325 352 356 357 366 366 362 363 363 346 342 340 337 338 340 340 339 338 336 336 341 337 343 330 323 322 318 322 324 331 331 334 331 331 335 335 337 336 334 336 336 335 333 337 336 338 342 342 345 349 352 353 353 353
321 322 322 322 322 322 322 322 322 322 321 321 321 321 321 321 321 322 322 322 322 323 323 324 325 326 327 327 327 325 327 328 329 324 338 360 360 365 365 362 359 362 350 341 341 339 334 336 339 338 335 334 335 335 336 336 341 330 327 319 322 327 328 331 334 332 336 336 334 334 334 335 335 336 337 333 332 336 335 335 339 340 341 344 348 352 352 351
321 321 321 322 322 322 322 322 322 321 321 321 321 321 321 321 321 321 321 322 322 323 323 324 325 326 327 327 325 327 329 329 321 328 347 360 365 365 364 360 361 362 347 341 341 339 336 337 338 338 330 331 332 335 333 334 336 330 325 322 326 329 327 330 336 338 336 335 334 333 333 332 334 337 333 331 331 333 337 341 343 341 342 345 347 349 351 351
321 321 321 321 321 321 322 321 321 321 320 320 321 320 320 320 320 321 321 321 322 323 323 324 325 326 327 326 323 330 329 315 321 336 350 362 366 365 362 361 360 351 342 343 340 337 337 336 335 334 332 326 330 332 330 333 336 329 325 328 329 328 327 332 333 336 336 339 337 332 329 330 336 336 334 333 330 330 336 345 348 348 346 345 347 349 352 353
320 321 321 321 321 321 321 321 320 320 320 320 320 320 320 320 320 320 321 321 321 323 324 325 326 326 326 323 327 331 323 309 322 337 368 364 367 364 363 361 363 345 341 338 336 335 334 334 333 329 327 325 325 325 328 334 335 322 327 328 331 330 329 333 334 337 338 334 329 328 331 333 332 332 335 336 335 337 345 348 349 350 352 353 353 352 351 350
320 320 321 321 321 321 321 320 320 320 320 320 320 320 320 320 320 320 321 321 322 323 324 325 326 326 324 323 332 322 314 314 324 353 366 367 367 365 364 362 361 341 338 335 335 333 332 332 331 326 326 325 322 326 330 331 333 327 324 330 331 333 331 334 333 339 335 331 329 334 333 329 329 327 336 335 339 342 345 349 348 350 353 355 353 353 352 351
320 320 320 320 321 321 320 320 320 320 320 320 320 320 319 319 320 320 320 321 322 323 324 325 326 326 323 328 319 316 314 313 329 360 367 367 366 363 360 349 341 339 335 333 333 331 331 329 326 326 325 319 320 324 328 331 331 325 326 330 332 333 334 334 334 333 335 338 339 334 329 330 331 331 334 335 339 342 344 346 348 349 350 351 352 351 350 349
320 320 320 320 320 320 320 320 320 320 320 319 319 319 319 319 320 320 320 321 322 323 324 325 325 325 323 325 315 311 312 324 345 355 365 362 360 358 349 341 342 337 333 333 332 330 330 329 327 327 320 320 323 324 326 328 323 328 328 331 332 332 334 334 331 331 334 336 338 333 331 332 331 333 332 336 338 342 343 346 344 345 345 347 349 351 350 351
320 320 320 320 320 320 320 320 320 320 319 319 320 319 318 319 319 320 321 321 322 323 324 325 326 323 326 322 313 309 321 338 348 359 356 357 357 352 343 339 339 336 332 330 330 329 328 329 327 327 326 323 323 324 327 326 323 332 330 331 332 333 333 333 330 331 333 335 339 333 332 331 331 332 324 337 340 342 342 341 343 343 343 345 347 349 349 350
319 320 320 319 319 319 319 320 320 320 319 319 319 319 318 319 319 320 321 321 322 323 325 325 326 326 323 314 311 310 332 336 345 347 355 357 354 346 340 340 338 334 331 330 328 329 331 331 331 329 324 321 323 325 326 328 332 333 333 332 332 333 333 332 331 330 333 332 338 335 330 332 332 331 328 333 340 342 339 340 341 341 343 345 348 348 350 350
319 319 319 319 319 319 319 320 319 319 319 319 319 318 318 319 319 320 320 321 322 323 325 326 325 328 326 320 312 313 330 334 339 344 346 352 345 342 341 343 338 334 332 328 329 331 331 331 331 326 321 326 319 325 327 332 332 332 331 326 329 331 329 331 329 332 337 329 337 337 330 328 330 327 331 334 338 339 340 340 343 343 342 344 346 346 348 349
320 319 319 319 318 318 319 320 319 319 319 318 318 318 318 319 320 320 320 321 322 323 325 326 326 330 321 311 314 321 330 330 325 332 340 345 338 339 340 341 339 336 333 330 329 331 332 332 331 325 326 323 323 322 331 334 331 332 329 328 326 327 327 331 333 333 332 331 339 333 317 319 327 331 333 336 336 337 336 338 339 342 343 342 344 344 345 348
319 319 319 319 318 318 319 319 319 319 318 318 318 318 318 319 319 319 320 321 322 323 326 326 327 329 324 313 318 320 324 323 323 328 332 336 333 331 336 338 337 336 335 332 331 332 331 333 330 328 327 324 324 332 330 330 330 324 326 327 323 321 322 330 330 331 329 336 332 333 319 320 328 331 334 336 336 334 333 334 336 337 340 342 343 342 344 346
319 319 319 318 318 318 318 318 318 318 318 318 318 318 318 318 319 319 320 321 323 324 325 325 330 325 316 314 321 324 353 327 324 325 328 330 329 327 328 331 330 332 334 332 330 332 332 331 329 324 324 327 330 328 324 325 326 325 320 316 318 316 324 329 332 329 326 332 331 329 321 321 327 330 335 339 340 336 332 332 333 336 339 339 340 340 341 345
319 318 318 318 318 318 318 318 317 318 318 317 317 317 318 318 319 320 321 321 324 325 329 330 331 323 313 309 316 339 332 322 320 324 331 331 330 327 329 328 330 330 331 331 332 332 331 330 325 326 326 328 326 323 321 321 321 323 316 312 313 315 321 326 329 331 333 332 330 327 320 324 326 332 335 337 337 334 332 333 333 334 335 336 338 337 339 342
318 317 317 317 317 317 317 317 318 318 317 317 316 317 319 319 320 322 324 324 327 325 329 319 320 320 308 318 322 315 316 321 322 325 326 330 330 329 329 328 327 328 330 330 329 329 328 324 326 325 327 322 322 320 314 311 311 316 319 312 315 314 317 317 328 331 333 331 325 328 323 325 329 332 334 334 335 335 332 332 333 335 336 337 337 337 340 342
317 317 316 316 315 316 317 317 318 317 317 317 317 318 319 321 322 322 325 328 328 324 326 327 320 317 311 317 311 314 317 318 320 322 323 326 329 328 328 326 327 326 325 324 327 324 325 321 322 316 318 319 320 317 311 307 309 309 311 311 314 316 317 317 320 328 331 329 326 324 324 326 328 331 333 334 335 335 332 332 332 334 333 336 337 340 341 342
316 316 315 314 314 315 316 317 317 317 316 316 317 319 318 320 326 330 322 322 318 312 307 310 308 304 304 311 315 316 317 321 322 321 322 324 326 328 329 330 327 323 320 320 321 321 323 320 320 316 312 315 315 315 313 313 313 311 312 311 312 312 315 315 321 330 329 325 323 323 321 324 327 330 333 335 335 334 333 334 334 334 335 337 339 340 341 344
315 315 314 313 313 315 316 317 317 316 316 317 324 326 326 321 321 318 319 317 313 312 313 314 313 313 312 314 315 320 323 323 318 321 325 328 327 326 326 326 324 323 321 316 319 320 322 314 313 312 314 315 315 316 316 315 314 313 312 311 311 312 314 319 324 328 330 327 323 324 324 325 327 330 333 335 335 334 333 333 333 334 334 337 339 340 342 344
314 313 313 313 313 314 315 316 316 316 315 317 319 321 312 314 309 308 313 316 319 318 314 314 314 313 312 316 317 318 314 317 320 320 324 331 328 325 321 323 320 317 319 320 318 322 320 313 313 315 315 315 316 317 316 315 314 312 311 311 312 312 312 319 322 327 332 325 324 326 324 325 327 331 334 336 335 332 332 332 333 334 334 337 339 339 343 346
313 312 312 313 313 314 315 316 315 315 314 319 319 318 316 316 320 318 314 309 316 317 317 316 317 314 317 316 318 318 317 314 317 320 324 325 323 321 321 321 319 315 320 319 319 316 314 311 315 316 318 317 317 316 315 314 312 312 312 312 311 312 321 321 325 327 329 325 325 327 323 325 328 331 335 335 334 335 335 334 335 335 335 337 339 339 343 345
313 313 312 312 314 314 315 315 314 313 319 322 322 319 319 324 328 329 321 314 311 316 314 314 313 313 314 318 319 320 313 313 312 318 320 323 320 321 321 318 317 317 318 318 314 313 310 313 317 319 318 316 315 315 315 314 314 312 312 311 309 313 312 315 322 326 330 323 326 327 321 326 331 333 333 335 334 338 342 340 335 336 337 337 339 340 341 345
313 313 312 312 313 314 314 314 312 317 322 324 322 321 324 327 328 325 318 311 309 314 313 315 315 314 314 314 320 318 314 315 315 316 324 324 320 322 320 318 317 316 315 317 316 313 312 316 319 318 317 315 313 315 314 313 312 312 312 311 311 312 313 315 321 325 327 327 326 326 321 323 328 326 328 334 336 338 338 339 339 339 339 340 342 340 342 343
314 313 313 312 312 313 314 310 319 324 325 322 322 324 326 328 329 326 316 312 311 310 318 316 316 316 317 322 321 315 316 316 317 320 323 324 321 318 318 322 318 315 315 316 316 314 314 318 319 316 315 315 314 313 314 313 311 311 311 311 311 312 315 319 323 321 319 319 323 321 312 314 322 325 325 330 332 332 337 336 336 338 339 340 339 340 344 346
314 313 313 312 312 313 310 318 324 324 322 323 324 325 327 327 328 328 316 306 301 308 310 306 318 312 322 315 319 317 317 311 318 321 321 324 328 321 319 316 318 312 315 315 315 315 315 318 318 315 314 314 314 313 315 314 311 310 310 313 314 315 316 320 319 318 313 309 319 324 310 306 321 323 325 330 328 329 336 334 337 339 339 337 338 342 344 344
313 314 313 312 311 311 321 324 322 322 319 321 325 327 326 326 334 325 308 302 298 308 306 312 311 313 318 318 317 317 304 308 317 318 320 323 320 324 315 315 316 317 318 318 315 311 317 316 316 315 314 313 312 312 315 315 312 309 314 316 317 316 317 318 318 316 317 322 323 322 318 310 308 321 327 331 327 329 332 334 339 340 338 336 339 343 344 344
314 313 313 312 311 309 317 316 321 320 320 322 325 326 326 329 329 322 308 295 294 309 307 310 312 317 317 316 319 312 311 313 310 314 319 323 323 318 317 315 314 315 317 315 306 314 316 314 314 313 313 312 311 314 315 315 312 313 318 321 317 318 318 318 318 316 317 316 314 316 320 312 309 325 330 330 325 327 329 333 338 339 337 338 341 343 343 344
314 313 312 312 310 309 313 317 320 319 321 324 325 325 326 330 323 313 306 294 306 308 313 309 317 314 313 316 314 314 313 313 309 313 318 321 322 319 313 316 315 316 317 316 310 313 316 315 315 315 313 310 314 316 316 315 313 316 321 321 320 320 320 319 317 316 316 313 309 315 318 308 309 327 326 328 325 326 328 332 337 338 338 338 338 343 343 343
314 313 311 311 311 313 316 316 315 322 322 324 324 325 325 322 315 304 296 290 310 302 308 310 310 309 313 310 311 313 311 311 312 314 317 316 318 320 317 321 316 314 313 316 314 315 315 321 320 315 313 315 316 315 315 315 317 321 321 319 318 318 318 318 318 318 314 308 309 314 317 312 305 316 321 323 323 327 329 333 337 338 340 340 342 341 342 342
314 313 312 310 314 320 319 319 321 322 324 325 324 324 323 318 307 301 292 302 309 306 310 308 308 311 309 308 307 312 311 311 311 313 312 316 315 316 316 313 317 313 312 312 312 314 315 316 315 317 319 317 317 313 315 318 319 319 316 314 314 315 318 316 316 318 307 304 314 316 316 315 304 310 320 328 331 330 332 333 336 337 337 338 341 340 341 343
313 312 311 312 315 313 317 318 320 324 323 323 324 319 313 302 305 297 296 309 301 306 308 307 309 309 308 310 309 309 308 310 311 310 310 311 311 310 311 308 310 304 304 307 307 313 311 312 315 316 320 316 314 313 314 317 317 316 314 314 307 306 307 303 310 304 304 302 315 316 315 313 310 313 324 326 329 331 333 335 337 337 338 339 341 342 342 343
312 311 311 311 312 314 315 319 322 323 321 321 324 318 306 301 294 301 302 305 302 311 307 312 310 309 308 307 307 309 311 307 311 310 311 312 311 312 313 311 313 309 302 308 307 307 309 313 313 314 315 318 316 309 310 310 314 313 311 310 306 302 301 298 301 304 303 312 316 315 317 309 313 321 327 328 333 336 336 337 339 340 339 338 340 342 341 342
310 311 313 315 315 317 319 321 320 320 319 324 319 309 304 297 297 306 306 307 308 312 311 309 310 310 309 305 307 309 305 310 309 309 309 309 309 308 311 313 313 311 309 310 305 306 302 303 309 312 309 317 315 313 314 313 313 312 314 312 309 307 301 298 300 299 300 307 313 317 309 307 307 321 328 333 334 335 336 337 339 340 340 340 342 341 341 342
309 310 315 319 317 319 319 320 321 320 319 319 311 305 297 298 303 301 304 308 311 309 307 310 308 309 306 307 308 309 310 306 310 309 307 307 305 307 308 309 312 312 311 305 308 308 305 306 312 315 314 317 313 316 317 314 313 314 314 315 309 307 311 302 306 304 304 305 308 312 308 316 318 331 333 334 334 335 335 337 338 337 340 340 339 338 339 340
310 319 317 321 322 324 322 321 321 319 321 314 306 301 299 303 301 308 308 310 309 304 305 309 309 306 305 305 307 307 309 307 309 308 307 307 308 306 309 310 310 311 309 305 309 304 306 303 312 313 314 314 315 317 316 316 305 312 312 307 309 316 312 308 309 311 309 305 302 312 313 316 326 325 331 332 332 332 334 335 336 337 339 338 336 338 340 340
324 321 323 325 325 325 324 322 321 320 319 311 303 299 304 305 307 308 311 306 306 306 306 304 305 305 303 302 304 306 307 308 308 307 304 308 305 308 308 310 312 312 312 310 307 312 305 305 311 311 309 314 316 316 316 316 316 312 306 311 318 319 316 310 302 310 305 299 304 309 306 309 313 306 330 330 330 330 332 333 334 335 336 335 337 338 340 341
324 323 322 319 321 324 324 323 322 322 316 307 301 303 308 302 310 308 311 308 307 307 304 306 307 308 304 304 303 305 307 304 306 306 304 307 303 312 308 308 312 312 312 313 308 310 310 302 309 311 311 313 314 314 312 315 315 312 310 318 308 305 303 310 307 299 298 298 301 305 309 308 311 314 322 326 327 330 331 333 333 331 333 335 336 338 340 342
325 323 314 319 325 323 322 325 323 319 311 303 302 300 305 306 309 307 309 308 307 306 304 308 305 308 308 304 306 307 307 303 307 305 304 306 303 310 309 310 309 313 313 313 308 311 311 303 306 312 311 312 313 312 305 309 313 314 316 313 316 312 307 306 307 307 307 300 300 301 306 303 316 324 325 326 328 333 332 332 332 333 334 336 336 338 339 337
321 315 311 322 322 325 326 324 321 313 308 301 303 303 309 304 307 310 310 309 306 306 306 305 307 306 308 308 307 305 307 307 306 306 306 308 305 311 309 312 310 312 313 313 310 312 309 312 303 308 312 312 306 310 307 310 308 309 309 309 311 310 315 313 313 308 304 302 302 302 300 308 322 330 330 331 332 333 333 333 334 333 335 337 338 338 339 341
322 315 312 323 322 326 325 320 310 306 305 307 307 306 308 305 307 308 309 310 308 311 307 306 307 306 308 308 307 309 307 307 307 306 306 307 307 305 312 312 313 311 313 312 311 312 309 309 304 308 307 306 309 313 313 313 313 311 310 308 310 308 307 303 303 313 308 305 302 303 301 312 325 333 334 333 334 334 335 335 333 334 336 337 339 339 339 341
315 305 311 323 324 325 320 307 307 311 307 304 303 306 306 312 307 308 309 312 310 309 313 308 309 308 309 309 311 307 307 306 307 307 307 306 309 309 312 314 314 315 311 309 310 314 314 312 309 306 307 308 312 313 317 317 316 314 313 310 313 312 311 307 298 307 310 308 311 308 304 314 329 331 333 334 335 335 336 335 333 335 335 337 339 339 340 343
314 312 320 322 326 323 315 307 311 307 304 307 308 306 308 307 307 309 308 310 308 311 310 309 310 310 311 311 310 310 309 307 307 306 308 308 309 312 313 314 315 314 313 312 313 314 322 310 306 307 311 312 315 317 317 316 315 312 312 315 313 310 311 309 308 310 307 310 306 307 306 311 326 331 332 334 336 336 337 335 333 333 334 336 337 338 338 341
314 311 314 322 325 323 310 302 302 303 305 309 308 307 311 309 309 308 308 310 309 310 309 310 312 313 311 313 311 309 311 306 309 308 307 310 309 314 314 313 315 313 312 313 311 316 308 311 309 305 305 308 311 315 314 314 313 311 310 312 314 314 315 314 314 315 306 309 308 305 301 315 328 331 332 332 332 332 332 333 334 332 334 334 336 337 338 340
314 315 315 317 322 319 310 307 306 305 306 306 308 306 307 310 311 310 311 311 313 313 312 311 313 314 312 314 311 312 312 309 308 311 310 310 310 311 313 313 314 314 315 317 328 317 310 311 309 304 301 299 300 301 304 307 310 314 317 315 315 312 313 311 306 310 303 318 312 307 307 321 329 330 330 331 330 331 332 332 333 334 334 334 335 336 338 337
312 308 312 313 316 315 315 314 313 309 307 307 306 307 309 307 312 315 316 314 315 315 314 314 315 315 312 311 310 310 310 313 309 310 310 309 311 311 312 312 313 314 327 341 323 318 311 315 313 310 310 306 309 313 314 320 314 309 312 313 312 314 315 314 313 309 306 315 310 314 313 321 323 327 326 328 329 328 328 330 330 332 334 336 337 336 337 336
318 312 310 309 315 314 314 314 312 311 310 312 308 311 309 310 314 316 318 313 316 314 314 314 314 311 312 312 312 310 310 310 312 311 310 310 312 312 312 311 312 317 337 320 325 317 315 309 312 315 312 314 313 311 314 317 313 313 312 312 313 313 315 313 311 308 315 309 305 322 320 313 321 326 328 329 330 329 329 330 331 332 334 334 334 335 335 336
314 318 319 321 312 308 310 310 313 312 315 314 312 313 312 312 314 314 317 317 318 317 312 316 314 314 314 313 314 311 310 311 312 310 312 312 312 313 312 311 311 321 321 314 318 315 311 308 314 312 312 314 314 315 317 316 316 314 314 313 313 315 314 313 315 319 318 311 312 321 323 320 323 327 329 330 331 330 329 330 332 333 334 335 334 333 333 334
324 321 323 320 315 315 317 317 315 315 314 314 314 315 313 314 314 318 318 318 318 318 317 312 313 315 315 317 316 312 313 308 309 314 314 313 312 312 312 311 312 319 315 315 316 323 317 312 312 313 313 314 314 315 317 316 316 316 316 316 316 315 316 316 316 318 318 317 319 323 324 324 327 328 331 331 332 331 331 333 333 333 332 333 333 332 332 333
318 317 317 320 320 318 319 319 317 315 312 319 312 315 316 316 315 319 321 319 314 315 318 313 314 317 318 317 318 314 314 314 313 311 316 314 313 314 313 314 312 316 316 314 314 320 317 315 317 314 314 313 314 316 317 317 316 315 316 317 317 317 318 318 317 318 319 319 318 321 322 322 329 333 332 332 332 332 332 330 331 332 332 332 332 331 332 334
328 329 329 321 314 317 318 317 316 315 312 316 312 314 315 316 317 321 319 322 320 318 318 315 318 319 320 318 318 316 317 316 317 317 317 316 312 315 314 315 318 314 314 313 313 316 315 317 318 316 311 311 315 315 316 317 316 316 316 317 316 315 314 317 318 319 317 315 317 315 316 322 327 332 332 331 330 330 329 330 330 330 331 332 331 331 332 333
330 330 330 324 314 324 315 317 316 312 307 312 313 314 315 317 318 321 317 320 322 323 322 321 321 319 318 319 318 317 318 318 318 319 319 319 319 317 316 316 318 315 312 313 316 312 314 318 314 311 307 311 315 315 314 314 313 310 314 318 318 318 319 318 320 322 322 320 315 313 321 329 330 332 329 329 330 329 330 330 330 329 332 332 331 330 333 334
Wind_Speed
13 14 14 15 15 15 15 16 16 17 18 19 19 19 18 18 18 16 16 16 16 16 15 17 18 18 19 18 17 17 19 10 8 5 6 4 5 12 12 21 18 15 17 12 12 12 10 8 7 6 4 5 2 3 4 3 4 6 4 7 9 8 10 8 10 8 6 7 7 6 6 6 7 5 5 3 6 5 5 7 6 7 8 7 8 9 9 10
14 14 14 15 15 15 16 16 16 16 17 18 19 20 18 18 18 17 17 16 17 17 16 16 17 18 19 17 17 16 16 9 8 6 5 5 8 12 16 21 18 18 16 12 12 9 7 7 6 7 4 3 0 1 3 3 3 4 7 8 9 8 8 7 7 6 6 9 7 7 7 7 7 3 3 2 6 4 7 7 6 7 8 7 7 8 7 8
13 14 14 15 15 15 16 16 16 16 17 18 19 19 19 19 18 18 18 17 17 16 17 16 17 18 19 17 13 16 11 7 7 2 6 4 9 14 18 18 19 18 14 8 8 5 1 3 6 7 2 1 0 2 3 4 4 6 4 8 9 8 9 9 7 9 9 8 8 7 8 8 7 5 3 6 8 7 8 6 7 7 8 7 6 7 6 6
13 14 14 15 15 16 16 16 16 17 17 17 18 18 19 19 19 18 18 18 17 16 17 17 18 19 19 18 13 14 7 10 4 5 6 6 9 15 18 18 18 17 5 4 5 3 1 5 7 6 2 2 3 2 2 4 4 3 4 7 7 6 7 8 7 7 7 7 7 8 8 9 8 6 3 3 7 8 8 7 5 8 8 8 7 6 5 6
13 13 14 15 15 15 16 16 16 17 17 17 17 18 18 19 19 18 18 18 17 17 17 18 19 20 20 18 19 8 8 9 5 3 6 8 11 11 16 17 16 11 3 6 6 4 4 5 6 4 5 2 2 3 3 3 3 3 10 7 7 8 9 7 7 6 6 6 6 7 7 7 5 9 9 7 7 6 7 7 8 9 9 8 7 6 4 5
13 13 14 14 15 15 16 16 17 17 17 17 17 17 18 18 19 18 18 17 17 17 16 17 19 20 21 19 13 6 6 2 4 3 5 8 11 11 13 15 15 6 6 9 5 6 5 6 6 3 2 1 3 1 5 2 2 5 6 8 6 9 9 5 6 5 3 5 7 8 8 7 8 9 9 10 10 8 6 7 8 8 8 8 7 6 4 3
13 14 13 14 15 15 16 16 17 17 17 17 17 17 18 18 18 18 17 16 17 17 16 16 18 21 19 22 5 5 5 3 4 6 9 10 11 12 11 13 7 8 8 7 7 5 4 4 6 4 3 3 5 3 4 5 2 2 8 7 9 9 9 7 7 2 4 8 9 6 4 6 6 10 7 10 8 8 8 7 7 7 7 6 7 5 4 2
13 13 14 14 14 15 16 16 17 17 16 17 16 17 18 18 18 18 17 17 17 16 16 15 16 18 18 11 6 5 6 3 7 7 9 9 12 12 12 11 10 9 9 8 6 4 2 4 4 7 2 7 6 2 6 5 3 6 8 9 10 9 9 8 6 7 7 6 2 5 8 9 8 8 7 10 8 7 8 7 6 6 5 6 6 5 4 2
13 13 13 14 14 14 16 16 16 17 16 15 15 15 17 17 18 17 18 17 17 16 15 15 15 16 11 6 5 9 1 6 5 8 13 12 12 14 14 9 11 10 9 7 6 3 5 1 5 6 7 6 4 4 6 6 6 3 10 9 10 10 10 9 9 7 6 5 6 8 9 9 9 10 10 7 7 6 7 7 6 5 5 5 6 5 5 4
13 14 14 14 14 15 16 16 16 16 16 14 13 13 16 17 17 18 18 17 17 16 15 14 13 15 9 5 5 7 4 7 6 8 11 11 12 12 14 7 11 10 9 7 6 6 6 4 6 6 8 4 3 3 3 5 7 7 10 11 11 11 10 8 9 7 4 6 2 6 7 5 3 7 6 5 5 6 5 6 5 4 4 4 4 4 4 3
14 14 14 14 14 15 16 16 16 15 16 13 12 13 16 16 17 18 17 17 17 16 14 13 11 13 4 4 6 5 6 6 4 6 9 11 13 11 13 8 10 9 9 7 8 7 6 8 5 5 7 7 3 5 3 5 7 9 12 12 10 8 8 9 9 9 6 5 3 6 6 6 2 4 6 6 4 4 6 5 4 3 4 3 3 3 3 3
14 14 14 14 14 15 16 16 16 15 16 14 14 15 16 16 18 16 17 16 17 14 13 12 10 4 5 6 6 3 6 5 5 4 6 11 10 11 11 9 9 9 8 9 7 4 6 7 7 6 6 5 2 3 4 5 6 11 12 9 10 9 8 8 8 7 2 7 5 2 7 6 4 6 5 5 4 4 5 6 3 3 2 3 2 2 2 3
14 14 15 14 14 15 16 16 16 16 16 14 15 17 15 18 16 17 15 16 12 13 13 11 9 4 5 8 4 5 7 5 2 3 5 7 6 6 7 8 10 10 10 10 10 6 5 6 7 8 4 5 5 4 7 5 7 9 7 6 9 8 7 8 6 7 7 8 6 3 2 7 6 6 5 5 4 4 5 6 6 4 2 1 3 2 2 2
15 15 14 13 14 16 16 16 16 16 16 13 16 15 17 16 17 16 14 14 15 14 12 9 5 5 5 7 3 4 5 3 3 6 8 6 8 7 8 8 9 10 10 12 12 8 8 5 6 7 4 6 2 6 9 6 7 6 5 6 4 7 7 12 8 9 8 8 8 3 3 3 7 7 6 5 3 4 4 5 6 6 4 3 2 1 2 4
16 15 14 14 15 16 16 16 16 17 16 15 13 16 16 17 15 14 13 13 11 8 7 8 5 5 6 5 3 7 3 3 7 8 8 10 9 6 9 9 10 12 10 11 8 5 4 3 4 6 2 1 6 8 5 5 6 4 7 5 2 4 8 12 9 10 7 8 9 5 3 5 7 8 8 6 4 5 4 4 5 5 5 4 3 3 3 4
16 16 15 14 16 16 16 15 15 13 15 13 14 15 16 15 13 12 10 9 9 9 7 6 3 4 7 8 4 10 6 6 3 1 6 9 9 7 5 10 8 9 10 8 5 4 4 4 5 3 5 6 6 4 2 4 5 6 4 3 2 3 7 8 10 10 5 4 6 4 3 7 6 7 8 8 7 5 4 4 3 4 4 5 3 3 3 3
16 16 14 13 14 15 15 13 12 12 13 14 15 15 12 11 10 7 5 6 5 5 4 3 1 1 5 4 2 7 5 4 2 6 4 7 9 6 6 7 6 8 8 8 5 4 4 6 3 5 6 5 1 4 5 5 3 5 4 4 2 4 5 3 11 10 9 7 6 7 5 6 8 9 8 8 7 6 6 5 4 3 3 3 3 2 4 2
16 15 14 14 15 16 15 14 12 13 15 16 17 14 12 9 6 5 6 6 2 3 4 2 4 4 11 12 6 4 4 2 1 3 6 4 9 7 7 7 4 5 4 5 6 7 7 6 5 6 3 3 3 4 5 6 9 8 3 3 4 4 5 2 7 12 11 10 6 6 3 7 9 9 8 8 8 6 6 6 5 4 5 4 3 3 3 3
16 16 16 15 15 15 15 13 13 12 15 18 19 11 6 7 5 5 3 4 4 4 5 7 6 8 2 4 2 3 1 4 6 6 7 8 7 7 7 4 6 8 8 8 8 9 6 7 5 7 8 6 3 3 7 10 10 9 7 5 4 3 6 6 4 12 13 11 9 7 4 7 10 9 7 7 8 7 6 5 5 5 5 4 4 5 4 4
16 16 16 15 15 14 14 13 10 12 13 12 3 4 4 4 5 4 5 6 9 9 6 2 10 9 6 4 2 7 8 6 6 8 7 7 8 10 9 8 8 10 7 9 8 8 1 8 8 7 4 5 6 6 8 8 8 6 5 4 2 3 3 4 5 8 9 8 8 8 2 6 9 9 8 8 7 7 7 7 5 4 4 5 5 5 5 6
16 15 15 14 14 13 13 10 9 10 10 7 7 5 3 2 6 2 1 8 11 11 13 9 8 9 9 5 7 7 8 5 7 7 9 7 8 10 10 10 10 10 11 9 4 7 7 9 9 7 6 6 7 7 6 7 3 5 2 2 2 3 1 4 5 8 7 8 6 5 5 5 8 9 9 8 7 9 8 8 7 6 5 5 5 7 6 6
15 15 14 14 13 13 12 11 9 10 11 4 4 4 2 5 4 3 4 4 8 10 11 12 7 11 9 10 8 3 3 5 8 9 8 9 10 12 11 12 12 12 8 7 6 8 8 11 8 1 3 5 5 4 4 6 6 2 4 2 1 2 5 6 5 5 6 7 3 8 7 6 8 9 9 9 9 7 6 6 6 7 5 5 5 6 7 7
14 14 14 14 13 12 11 10 9 9 4 4 4 1 3 3 4 2 4 6 9 6 7 9 11 13 11 7 5 5 8 9 7 13 11 11 9 14 9 12 13 13 9 10 11 10 11 10 14 3 3 8 6 3 5 7 5 3 2 4 2 3 5 5 6 8 5 4 1 8 8 5 6 7 8 9 9 5 1 3 6 6 6 5 6 7 6 7
14 14 14 14 14 12 12 11 13 7 5 5 5 4 4 4 4 3 6 5 4 6 7 7 9 9 9 6 6 10 10 5 6 9 12 11 12 6 8 10 14 13 11 11 13 12 11 1 10 3 3 6 9 4 7 6 5 5 3 5 1 2 2 7 8 7 6 4 3 4 6 6 9 10 9 10 8 5 6 6 6 4 5 5 5 6 5 6
14 14 14 14 13 13 11 12 5 2 1 3 3 3 2 4 3 4 5 5 5 4 4 3 3 6 3 4 5 8 8 8 10 2 7 12 10 5 11 6 6 10 14 15 10 13 13 6 3 1 7 7 7 9 7 4 8 7 6 6 6 2 1 6 12 10 6 5 6 9 6 8 12 12 11 10 9 10 8 8 9 8 7 7 7 7 7 6
13 14 13 13 13 13 12 5 4 1 5 2 4 3 3 5 3 3 5 4 5 6 4 7 4 3 3 7 8 7 0 9 8 7 5 4 2 9 6 8 6 10 13 7 11 9 6 5 5 10 10 11 9 9 1 6 6 6 7 4 3 1 4 7 10 8 5 5 8 11 8 3 3 10 11 11 11 11 8 8 8 8 8 8 7 8 7 7
14 13 12 12 12 14 6 2 3 2 5 5 3 4 5 3 1 6 4 4 7 4 5 5 5 3 3 6 9 6 9 4 6 6 7 4 10 2 7 8 6 5 4 3 4 10 9 9 6 7 11 10 9 10 7 5 7 2 4 3 1 2 5 7 7 6 3 4 6 7 6 8 4 8 12 11 11 11 10 9 9 8 9 8 9 8 8 7
14 12 12 12 10 9 4 6 5 5 4 5 4 5 5 2 3 4 5 5 4 3 3 5 1 3 4 3 7 11 5 2 9 8 2 5 5 8 11 9 10 11 10 6 12 2 6 9 12 11 11 10 11 5 8 3 5 6 3 2 2 2 3 5 5 2 1 4 4 6 6 6 6 6 8 11 11 12 11 11 11 10 10 9 10 9 9 8
14 12 12 11 12 9 6 4 5 2 3 5 5 5 2 2 6 5 4 6 3 2 2 4 1 5 4 4 9 10 5 2 7 8 6 5 3 3 11 14 7 9 9 12 12 7 4 1 6 8 7 10 9 2 2 2 6 5 3 3 4 4 3 3 3 2 2 4 5 6 8 6 6 8 7 8 9 10 11 12 12 12 11 10 11 11 10 9
14 12 12 11 11 6 4 3 7 3 3 6 6 4 2 5 5 6 6 5 2 5 3 4 5 5 8 8 9 11 10 4 2 4 8 6 9 6 2 6 8 9 8 10 13 7 7 2 6 3 7 5 3 3 2 2 4 9 7 6 6 4 3 3 1 3 3 6 5 2 9 7 6 4 4 7 5 6 8 9 10 12 12 11 11 10 10 9
12 9 8 5 4 3 2 4 4 1 4 5 6 3 5 5 5 5 8 4 4 6 4 4 6 4 11 11 10 11 11 6 4 7 8 6 9 9 5 8 6 8 10 9 11 14 10 6 7 5 9 4 5 3 3 2 7 8 6 4 4 3 2 3 3 2 6 5 5 0 5 4 7 1 2 6 6 4 5 11 12 13 14 12 11 10 10 10
12 9 5 6 4 3 5 3 3 4 4 6 5 5 5 6 4 7 2 3 4 3 2 4 5 5 9 11 9 12 11 10 6 8 9 10 9 10 11 10 10 11 12 11 11 11 12 12 9 10 5 8 7 8 6 6 6 8 6 6 8 4 3 6 5 6 6 5 4 1 3 6 8 10 4 7 7 7 4 5 11 12 13 12 11 11 10 10
10 8 6 9 6 6 7 6 4 5 8 7 5 6 7 5 7 7 2 4 2 5 5 4 3 4 5 8 10 7 7 11 10 7 8 11 10 12 13 14 9 12 9 12 12 9 9 12 15 12 9 11 11 11 7 7 8 8 9 8 8 8 6 8 7 3 7 5 3 1 2 7 8 4 3 6 6 8 7 6 6 10 11 11 11 11 9 9
9 7 5 5 8 8 5 5 4 7 9 5 7 5 6 6 4 6 3 2 5 1 3 2 3 4 7 9 10 10 9 10 7 9 9 8 11 10 10 11 7 11 12 2 8 10 9 11 12 11 10 11 14 13 9 7 9 10 9 8 9 8 7 9 5 7 5 3 4 4 4 3 6 5 6 8 6 5 6 5 7 5 10 10 12 10 9 9
7 4 6 4 6 9 10 7 5 4 5 5 7 7 7 6 1 3 4 3 2 5 3 2 6 7 10 11 4 10 8 9 12 10 10 9 11 10 10 11 14 12 9 11 8 6 10 9 4 16 2 11 14 15 15 12 7 7 7 6 8 10 5 10 6 8 9 3 5 6 5 1 2 8 6 6 7 6 5 6 7 9 9 12 11 11 10 10
6 2 4 3 2 3 4 3 4 5 5 7 7 6 8 3 1 1 3 4 2 7 9 5 4 9 7 10 8 9 8 6 13 10 10 12 9 11 10 7 12 15 11 11 4 8 7 10 8 8 5 9 10 10 11 8 10 7 8 10 8 4 8 6 4 3 6 6 9 2 5 3 7 6 6 8 8 7 6 7 8 10 12 11 10 12 11 10
3 4 3 3 3 2 2 4 4 5 5 7 7 7 4 1 3 2 4 6 6 8 8 5 7 5 8 9 8 12 8 8 8 11 10 10 11 11 8 8 7 13 16 11 8 6 7 6 10 10 11 12 3 2 4 10 9 1 8 7 7 1 7 7 9 3 6 8 3 4 8 2 3 1 4 7 7 8 9 8 8 9 11 11 10 11 10 10
3 3 1 5 4 2 2 4 5 5 6 6 8 5 2 6 4 5 4 6 4 4 7 6 4 6 6 7 10 12 11 11 10 10 9 12 7 11 15 11 12 12 14 15 12 6 8 10 6 11 10 8 6 7 7 6 6 9 7 7 7 5 9 6 7 11 10 7 7 4 1 8 4 1 7 9 9 9 10 9 10 10 10 10 10 10 10 10
4 5 4 5 2 3 4 4 5 5 7 6 5 6 5 6 2 5 4 5 5 6 7 1 5 3 4 6 3 11 12 11 10 10 10 9 10 9 12 11 11 15 14 14 13 4 4 8 4 6 9 8 8 9 12 11 9 8 4 8 3 6 8 7 6 8 5 9 8 1 2 6 5 4 6 5 6 10 11 9 9 10 10 9 9 9 10 9
6 6 3 3 3 4 3 4 5 6 6 8 4 5 3 5 4 4 5 4 3 5 2 5 2 4 4 3 3 8 11 12 8 8 10 8 10 8 7 10 8 12 14 14 12 7 6 5 7 7 5 7 9 8 12 12 11 10 10 10 8 8 3 7 3 7 7 8 7 8 8 3 5 5 6 6 6 9 9 9 8 9 9 10 10 9 9 9
4 5 4 3 4 3 4 5 6 8 8 3 4 3 1 4 3 4 5 6 7 7 9 7 6 5 3 2 8 5 6 9 8 8 8 7 9 8 10 9 8 8 10 12 13 7 7 6 8 6 9 8 6 6 6 8 5 9 11 12 11 10 8 9 7 3 7 6 7 8 8 4 5 3 5 7 7 8 8 10 9 9 9 9 8 8 8 8
6 5 5 4 4 4 5 7 4 1 5 6 3 3 1 3 7 7 6 5 9 7 6 6 8 8 6 6 4 4 5 8 9 9 9 9 12 11 7 12 11 10 10 10 11 10 9 3 8 6 8 6 7 3 1 4 7 9 8 10 11 10 9 8 8 4 2 6 6 7 10 3 4 4 4 6 6 8 8 8 8 8 8 7 7 8 8 8
6 4 5 4 3 5 6 5 2 5 7 1 3 6 5 7 7 4 6 4 6 7 6 7 6 5 6 5 1 4 6 6 8 10 8 11 7 11 6 10 8 12 11 9 13 8 6 6 6 8 5 5 3 3 3 5 8 9 9 6 6 10 8 8 8 3 7 4 7 5 8 4 4 4 5 4 7 6 6 7 8 8 7 6 6 7 8 9
3 6 5 4 3 5 5 6 6 7 5 2 5 6 5 6 6 7 7 6 6 4 6 4 4 8 5 2 4 5 3 7 9 10 9 7 8 4 10 11 14 9 11 7 9 12 8 8 9 6 7 6 7 6 5 4 7 7 7 9 7 4 4 4 3 1 9 5 8 8 9 2 4 4 5 6 7 7 7 7 7 8 7 7 8 7 7 10
4 3 3 5 5 5 5 2 4 3 4 5 4 8 7 7 7 11 9 7 5 7 5 5 5 2 4 4 6 8 7 10 3 8 8 3 5 4 3 11 16 11 13 8 9 11 10 7 8 8 9 9 9 8 6 7 7 4 1 5 7 8 8 5 9 4 8 3 4 7 4 6 7 5 6 6 6 6 6 6 6 6 7 8 8 7 8 9
6 4 5 5 4 4 3 1 4 3 3 4 7 6 5 7 6 7 7 9 10 9 9 8 7 6 7 6 7 8 8 8 9 0 5 7 6 4 3 10 14 14 6 7 4 10 6 2 8 8 8 5 5 5 3 5 6 6 6 7 8 6 4 5 3 7 6 4 6 2 3 5 8 9 7 7 6 7 7 7 7 7 7 7 8 8 8 8
2 3 5 5 4 5 3 4 3 4 2 1 5 1 6 7 2 5 6 5 5 6 6 8 5 6 4 6 4 5 4 5 8 8 8 8 5 3 4 5 10 6 8 7 8 6 4 7 7 6 6 4 4 6 4 4 3 4 8 8 6 6 6 8 7 1 4 6 5 6 1 2 5 8 7 8 7 7 7 7 7 6 7 7 8 7 9 9
4 3 1 4 3 3 6 5 4 4 1 4 3 2 5 4 4 4 5 8 6 5 5 5 8 8 5 5 5 5 3 4 4 5 3 5 5 7 5 6 9 9 7 8 10 8 7 7 6 7 1 2 1 2 1 1 1 4 6 8 7 5 7 5 6 4 4 3 4 4 4 6 6 7 8 7 7 6 7 7 7 7 7 7 8 9 8 10
4 3 1 2 4 2 4 5 2 3 5 5 3 5 6 5 4 1 3 1 4 6 9 5 5 3 3 3 5 4 3 4 5 2 4 1 5 7 6 6 6 10 11 9 10 3 5 1 5 5 3 2 2 2 4 4 6 7 6 5 5 4 5 7 8 6 6 7 7 8 10 10 7 8 8 9 6 7 8 7 8 8 8 8 9 9 9 9
3 2 5 4 3 2 2 3 3 4 5 5 4 4 5 4 4 4 2 4 4 4 4 8 5 4 5 5 5 5 3 6 7 8 1 5 3 7 5 4 6 11 11 10 9 5 7 4 6 7 3 4 3 5 5 6 9 9 7 6 6 7 8 8 8 7 7 8 7 7 9 8 6 7 9 8 6 7 8 8 7 8 8 8 8 9 10 9
3 2 4 3 5 3 2 3 4 4 5 5 6 2 5 4 4 4 9 8 10 7 4 6 6 9 5 5 4 6 4 8 11 11 12 9 6 3 5 5 10 12 14 10 9 8 9 4 6 4 4 4 3 6 7 8 8 9 8 6 4 4 5 4 4 4 2 4 4 4 4 5 6 8 8 7 7 7 8 8 8 7 8 8 8 9 10 9
2 0 3 4 4 4 5 3 3 4 6 4 4 2 4 4 6 6 8 1 3 6 8 8 8 8 7 6 4 4 7 12 13 12 9 7 7 6 4 3 10 12 11 11 8 9 7 7 6 6 4 3 5 5 9 10 7 8 6 5 5 7 6 7 6 4 6 2 3 2 5 6 10 9 9 8 7 7 7 7 6 7 7 7 7 9 9 9
Wind_Direction
342 341 340 339 338 337 337 336 335 334 332 330 330 329 330 332 334 333 335 335 333 333 330 323 319 315 315 319 324 329 329 312 303 263 234 24 38 115 120 125 148 146 163 165 145 157 159 164 169 169 203 233 90 246 30 262 296 262 37 57 60 57 54 38 55 60 78 87 77 68 45 65 85 90 80 193 80 66 78 69 65 63 57 61 103 109 117 126
340 339 339 337 337 336 335 335 335 332 332 330 329 327 328 331 331 332 333 334 333 330 329 323 317 316 314 316 322 334 322 293 285 267 295 5 118 128 129 141 147 162 181 159 168 172 160 165 168 190 200 184 342 34 282 92 279 330 70 53 65 52 61 44 58 55 84 81 90 84 69 66 59 16 69 73 75 97 88 85 86 83 78 91 99 104 119 126
338 338 337 337 335 334 334 334 333 333 331 329 327 326 326 328 329 330 331 331 331 330 328 324 320 315 313 316 321 328 313 284 248 158 25 72 139 138 143 148 157 175 188 170 177 185 254 147 167 195 197 233 200 52 274 76 261 37 351 71 71 76 73 64 55 83 94 113 104 98 82 68 58 50 108 79 91 78 63 74 96 88 96 93 100 110 111 111
338 337 336 335 334 333 332 332 332 331 330 328 327 325 325 326 327 329 329 329 329 331 327 326 321 317 313 314 327 316 267 274 248 55 54 101 142 146 149 156 162 186 215 196 169 161 125 146 168 218 171 238 111 230 252 87 273 25 42 61 86 88 93 75 88 81 87 89 92 92 95 79 63 54 71 142 107 76 71 53 64 99 101 104 106 114 119 109
337 336 335 333 333 332 331 331 331 330 329 328 326 324 325 324 325 327 327 327 327 330 329 326 323 317 315 313 317 278 279 277 98 57 61 139 145 156 153 158 172 179 185 133 154 156 173 163 176 200 260 73 130 173 69 118 349 68 58 70 100 95 82 77 75 78 78 78 103 89 76 83 94 55 45 50 70 59 48 68 90 96 99 112 127 123 121 128
335 335 334 332 331 331 330 330 329 328 328 326 325 324 323 323 323 324 326 326 327 327 329 327 323 319 316 316 306 243 266 241 50 39 108 146 149 157 158 162 188 210 167 162 169 162 170 171 203 203 188 318 87 40 93 67 255 80 88 91 59 75 92 97 91 78 104 105 80 82 84 97 79 76 60 63 66 83 75 94 101 106 103 104 110 125 138 135
335 333 332 332 329 330 329 328 327 327 326 326 323 323 322 321 321 322 323 324 325 324 327 327 324 321 321 307 246 261 285 354 100 84 124 157 150 153 159 166 213 191 180 170 172 181 198 202 236 354 286 150 89 88 118 131 191 26 97 97 89 94 91 93 93 112 61 76 80 93 119 79 88 75 67 73 75 78 89 96 99 98 111 125 119 119 124 137
333 332 330 330 329 327 327 327 325 324 325 324 322 321 321 320 320 321 322 322 322 323 325 328 325 319 338 329 287 255 268 61 72 108 125 142 152 152 161 175 192 186 194 198 182 209 216 242 304 341 278 11 35 202 142 157 200 109 113 106 103 100 107 106 99 87 85 78 102 103 85 76 80 85 93 74 85 102 108 111 104 109 109 105 98 95 113 118
331 329 329 328 326 326 325 324 323 322 322 322 317 320 319 319 318 319 319 322 321 321 324 328 324 318 314 273 301 300 248 67 63 125 142 157 159 159 174 181 200 201 208 218 219 247 249 142 293 346 0 351 50 127 181 209 131 78 114 125 120 113 114 117 114 111 108 96 94 98 94 100 100 108 72 78 90 112 121 122 126 127 116 98 78 69 66 64
328 328 327 327 325 324 323 322 321 322 321 317 317 317 318 317 316 317 318 318 319 318 320 325 328 316 302 280 283 263 83 122 111 133 155 159 157 167 193 206 187 209 223 222 220 221 242 349 323 338 307 252 313 65 160 269 75 124 127 123 120 120 122 129 117 114 101 89 106 112 119 116 115 257 96 96 95 110 134 129 126 122 110 83 74 71 66 54
327 326 325 324 324 322 321 321 321 319 319 316 317 317 316 314 315 314 316 315 315 314 316 321 334 313 283 298 282 269 127 146 124 127 148 162 163 182 199 207 200 221 234 247 240 223 247 287 320 301 248 30 284 111 209 76 117 125 118 119 122 127 122 128 124 129 140 98 85 104 103 111 73 53 81 107 123 144 137 139 130 139 87 79 86 65 63 40
326 325 324 323 322 320 320 319 320 319 315 319 317 315 313 312 311 311 311 312 306 308 313 316 323 295 277 261 245 294 160 114 148 135 156 172 182 200 203 204 208 233 247 264 263 239 249 277 285 283 332 319 94 128 113 147 159 139 144 134 130 137 128 152 142 134 167 128 135 6 145 112 115 94 107 116 136 143 133 123 149 127 124 126 109 96 81 52
323 323 323 321 320 320 318 319 318 317 316 314 316 312 310 310 308 306 306 303 303 306 310 311 303 256 294 260 262 104 142 126 132 186 171 197 219 216 214 212 224 240 253 267 282 328 344 285 270 273 334 299 68 358 106 181 150 171 193 132 157 164 148 151 140 148 173 142 177 110 192 84 108 122 128 139 154 161 150 142 144 148 149 113 111 113 98 100
323 321 321 321 319 318 319 317 317 316 314 313 312 311 310 306 305 302 296 291 298 295 295 307 288 271 264 265 102 159 158 175 172 205 211 205 226 216 207 215 235 244 248 260 276 311 315 292 270 270 294 286 120 152 157 160 174 185 145 193 182 204 157 159 172 170 192 147 202 219 359 112 127 151 149 143 168 181 150 135 132 136 135 122 108 108 141 123
322 321 320 319 317 316 316 317 316 315 313 312 308 309 308 304 301 296 291 285 276 290 297 282 252 273 240 263 159 127 111 189 214 231 207 196 208 203 206 204 222 232 244 254 274 286 315 305 242 242 181 142 139 189 158 172 192 151 188 194 213 275 121 162 171 179 203 166 210 260 250 114 139 145 158 144 172 221 144 133 129 126 133 127 130 144 120 86
322 321 319 318 316 315 314 315 314 309 310 311 307 307 305 299 293 291 292 286 300 280 260 255 186 285 303 268 119 142 180 220 167 259 176 208 203 235 165 189 210 226 233 256 256 258 260 238 255 357 115 172 194 217 185 180 179 180 272 28 209 242 124 164 186 189 236 168 191 247 20 132 133 154 153 158 178 184 154 131 135 127 127 133 122 109 74 84
323 321 321 317 317 313 314 313 309 311 314 310 310 298 293 290 278 271 277 261 238 220 251 322 343 283 257 71 165 225 186 110 59 166 163 222 225 227 155 170 202 215 215 240 257 219 190 223 150 224 225 265 250 283 267 238 152 167 202 312 25 251 163 186 150 191 178 224 195 184 247 81 125 153 163 168 167 188 145 146 145 139 134 114 129 126 110 124
324 322 321 325 319 316 312 311 313 318 317 312 307 300 294 292 277 235 207 222 207 220 240 262 268 264 242 252 241 111 52 260 225 336 266 234 224 201 201 198 181 195 193 192 161 220 174 224 189 280 227 212 231 241 268 352 357 335 327 243 185 230 243 149 184 171 184 203 229 171 260 121 141 150 169 176 168 185 143 152 145 156 150 154 124 109 105 111
325 324 323 321 318 313 310 311 315 323 320 315 292 279 264 251 229 248 188 163 196 176 214 174 188 204 28 126 6 297 286 7 288 255 209 190 204 211 209 240 208 190 202 224 158 232 169 256 223 255 248 200 190 327 330 340 332 326 313 305 313 234 177 226 108 141 180 182 207 199 198 154 152 155 168 185 175 193 152 141 156 167 140 163 132 138 139 108
327 325 323 319 317 311 308 311 319 318 332 317 286 202 200 195 179 179 187 213 239 258 345 76 214 290 278 249 10 348 281 228 251 205 182 178 169 186 194 201 196 220 220 225 160 224 9 250 234 230 260 1 337 340 339 325 327 303 269 277 253 254 164 119 112 152 179 189 213 195 174 156 159 163 169 185 186 191 179 160 174 169 150 142 150 125 110 114
328 328 322 318 315 315 307 314 316 317 324 291 284 242 275 334 267 157 178 227 224 236 258 249 239 261 274 341 300 342 3 188 228 190 188 171 197 181 178 199 195 214 214 241 260 95 230 250 246 262 310 315 316 345 324 317 306 298 296 259 128 231 72 107 135 152 175 220 165 185 178 181 164 161 166 177 202 199 189 180 175 183 170 140 149 136 133 119
332 327 325 319 317 311 312 310 320 321 297 269 251 266 55 35 14 6 297 256 186 226 234 247 261 261 265 267 280 299 271 277 200 194 148 201 172 215 154 213 207 225 190 194 218 223 228 239 252 213 282 302 302 316 314 311 315 240 296 53 16 87 83 111 114 160 174 229 162 175 201 186 174 172 164 181 204 205 207 196 188 173 184 155 156 143 137 134
334 331 328 323 316 313 313 312 305 318 279 220 242 223 54 29 322 315 276 279 273 173 218 221 227 245 256 247 232 176 240 235 245 183 171 204 164 225 184 205 219 230 203 205 228 223 238 236 240 149 262 285 268 252 296 281 250 281 232 246 29 81 219 160 151 162 183 238 24 177 211 159 172 178 185 189 203 202 227 256 210 175 184 182 162 159 155 143
334 334 330 324 319 316 313 314 306 268 229 269 297 50 64 339 304 235 234 275 317 176 212 205 238 242 242 252 158 197 221 223 231 206 162 194 210 170 230 211 221 227 221 217 229 246 243 27 79 120 256 269 275 253 269 273 244 104 3 348 27 207 217 339 139 161 172 191 259 174 224 191 192 191 196 185 193 190 208 216 231 204 171 177 151 133 160 156
332 333 332 327 320 320 319 325 260 204 27 232 214 98 14 332 304 252 267 250 210 206 102 205 213 246 196 72 159 212 219 248 242 272 165 206 184 143 221 220 245 213 229 228 233 241 253 223 189 261 261 257 257 251 228 299 278 120 57 9 348 287 167 115 135 152 180 186 213 208 236 219 187 199 199 175 182 199 189 207 208 194 178 170 168 147 142 133
331 329 332 329 324 321 323 278 125 34 256 199 76 97 332 332 286 240 265 259 243 132 162 192 167 153 153 190 164 219 224 242 210 203 185 219 266 237 143 219 206 234 221 195 228 242 251 82 209 242 243 248 249 261 291 272 290 257 71 355 321 304 147 148 164 190 202 266 168 212 269 12 183 196 193 177 188 188 170 200 191 178 176 177 171 157 151 142
332 327 327 332 325 329 266 80 15 264 211 136 56 349 329 308 70 215 256 180 239 109 182 57 220 115 257 138 178 164 224 140 127 143 196 168 209 182 238 186 174 245 355 224 222 234 226 224 207 225 239 242 240 236 184 255 276 307 25 17 259 156 162 176 185 233 31 77 112 217 230 296 264 188 183 177 190 186 179 181 173 171 177 168 163 151 155 149
330 328 325 326 332 317 322 317 277 221 33 48 345 326 326 311 188 227 255 237 177 141 141 162 19 72 261 158 204 210 8 4 196 157 188 139 210 160 231 218 212 209 194 214 236 100 207 205 219 218 225 233 231 244 79 241 283 44 50 270 106 152 137 177 213 257 320 249 204 200 212 244 253 108 148 171 193 197 194 178 171 168 163 160 154 154 152 154
330 327 323 319 317 304 280 275 297 323 43 3 334 318 325 158 221 261 268 255 85 220 1 149 28 208 185 160 202 227 256 206 304 115 136 154 243 291 204 228 234 239 189 219 242 158 166 356 209 229 225 224 234 47 291 204 243 115 132 140 109 114 160 200 244 248 218 254 263 200 190 249 289 124 169 186 217 205 197 181 171 165 159 166 157 157 149 149
326 323 318 318 298 207 201 217 239 337 324 343 325 311 205 197 224 221 200 238 122 142 223 62 218 164 179 185 193 200 226 165 8 142 165 198 163 220 17 348 227 221 211 218 247 275 76 78 27 254 218 271 39 68 329 213 71 140 160 148 139 146 146 218 304 283 245 246 264 195 187 256 292 157 152 186 204 209 178 170 165 160 160 164 161 161 150 152
319 309 305 305 278 14 292 215 91 2 335 318 307 252 208 217 248 256 216 63 242 79 191 187 167 172 191 198 190 191 220 208 178 179 164 181 170 208 168 191 226 231 232 222 226 233 226 202 229 196 247 259 269 180 127 150 150 178 200 210 167 136 183 198 189 214 267 279 83 112 213 212 258 199 182 108 109 107 139 163 160 166 162 163 164 160 156 150
309 299 254 247 329 318 253 63 13 336 321 311 283 214 222 220 196 239 114 123 228 93 301 97 147 207 197 206 234 178 198 201 206 203 198 192 188 197 188 220 173 210 215 217 224 213 227 227 225 226 174 248 210 231 141 182 185 226 230 223 248 228 226 241 192 238 244 299 97 101 191 225 239 280 89 124 125 121 119 125 165 165 162 158 164 157 155 150
304 283 257 248 256 236 253 292 303 322 306 274 242 232 230 245 221 200 150 219 96 339 104 292 95 200 211 200 216 183 196 220 174 221 230 190 221 196 200 222 182 217 228 197 232 208 218 224 216 218 218 208 239 236 164 205 198 225 232 228 240 258 244 264 265 255 285 120 123 130 189 267 296 116 88 124 103 100 118 116 121 160 166 165 160 157 159 157
303 279 253 201 220 241 280 303 297 309 311 244 239 216 252 239 214 23 334 44 52 94 302 283 295 237 216 210 198 186 194 220 185 188 204 188 218 208 183 213 232 206 245 263 222 210 231 200 202 209 216 189 216 233 236 245 189 221 244 248 251 265 277 281 280 283 309 356 125 140 215 266 257 88 101 94 110 118 119 136 133 156 164 161 153 152 158 151
321 259 244 241 236 241 241 252 262 273 277 238 221 233 221 213 357 169 176 62 58 334 312 325 260 211 190 224 166 199 247 182 205 196 203 215 199 228 202 196 202 235 221 241 206 257 242 258 85 190 257 178 213 214 239 258 267 218 225 250 257 253 264 265 323 307 307 282 206 175 265 252 353 128 112 128 122 115 114 120 149 155 148 141 152 153 170 171
274 169 205 221 238 114 190 200 219 220 249 219 230 217 226 312 90 69 50 323 323 332 326 283 211 202 189 196 179 216 163 281 171 213 209 216 217 216 214 208 195 200 220 226 169 219 208 242 223 171 183 212 217 214 214 228 240 185 207 226 257 326 272 275 243 268 275 275 281 207 229 203 126 166 149 143 136 117 124 124 140 156 150 149 163 167 170 170
226 167 198 152 144 107 165 183 194 225 234 235 233 223 266 202 340 336 42 334 341 319 303 277 149 248 182 186 190 189 171 224 174 207 211 205 229 236 230 222 210 197 224 234 216 237 279 242 183 204 201 206 228 227 232 202 254 118 221 222 107 51 300 267 278 178 258 283 276 235 274 219 209 188 163 167 160 139 133 128 129 147 150 163 167 171 165 158
277 223 87 67 42 113 166 184 217 230 231 223 228 280 33 257 117 286 0 304 291 263 299 287 98 280 192 200 181 188 161 208 162 198 233 169 246 194 219 230 203 223 215 217 260 169 217 258 198 200 223 131 168 206 200 206 224 247 302 74 228 190 218 204 261 263 272 266 288 241 262 280 288 40 168 170 181 149 132 128 137 150 164 166 162 158 160 147
256 241 169 56 92 133 156 193 242 228 214 216 222 222 194 263 316 263 295 311 272 298 273 82 323 144 316 213 136 178 163 211 164 203 221 166 229 156 225 215 202 212 215 214 218 196 192 257 185 135 217 146 177 193 219 191 187 232 255 235 225 272 257 229 228 282 276 277 279 227 196 298 106 27 44 117 164 140 135 142 146 152 159 155 155 162 164 150
208 216 120 79 119 162 172 237 243 208 220 228 201 238 68 255 250 245 252 257 268 250 278 306 204 297 222 282 223 190 182 225 184 197 222 143 224 124 222 188 235 194 208 206 225 197 226 196 276 120 135 164 209 193 225 216 192 190 212 228 207 233 348 294 265 260 271 285 284 305 297 65 66 36 49 58 116 136 142 136 141 151 152 155 160 163 162 152
231 273 98 114 144 170 224 244 208 200 215 224 293 291 237 274 312 262 252 232 260 251 280 288 301 273 352 267 204 228 187 212 213 216 210 181 218 200 200 203 208 187 188 199 222 194 225 186 245 162 181 203 201 148 311 308 272 222 208 225 223 219 213 232 236 175 260 261 286 290 289 65 67 30 56 72 87 113 117 128 141 142 147 151 153 157 161 148
214 200 110 129 157 221 265 204 199 264 255 229 237 225 212 24 265 267 268 229 235 261 204 271 264 270 266 249 314 168 232 204 208 229 199 239 182 252 129 197 195 168 182 189 208 190 232 207 240 226 196 201 58 98 347 271 273 282 250 231 222 232 232 230 254 191 293 277 297 282 294 37 64 58 61 66 81 106 121 135 131 132 143 147 150 154 159 145
230 58 73 158 185 282 264 232 138 207 230 303 18 246 254 249 268 286 280 218 238 222 244 233 259 257 223 263 237 247 220 236 211 216 220 216 230 212 152 185 182 187 203 191 203 180 191 233 216 252 279 269 129 131 169 222 223 221 227 261 228 231 228 248 260 253 248 214 247 234 259 89 121 101 92 89 82 92 115 123 131 144 146 148 157 157 156 145
110 125 146 150 226 279 258 222 206 209 219 185 236 270 220 268 262 256 240 237 240 181 231 249 234 233 298 260 265 264 181 237 192 233 221 214 230 189 198 187 178 198 211 162 220 141 211 198 251 199 203 194 173 175 164 157 206 213 210 202 230 250 228 264 310 342 269 252 280 300 290 107 140 136 128 129 133 129 133 131 143 142 144 158 157 157 153 142
131 94 114 142 198 245 265 323 293 235 195 233 255 248 225 218 230 247 264 261 236 259 268 241 258 346 253 251 259 253 245 263 298 203 269 218 224 82 207 211 192 210 213 179 206 146 224 166 196 216 196 192 199 193 189 172 188 140 25 156 203 218 209 214 234 196 263 104 250 266 345 73 119 153 123 119 119 114 119 123 119 136 158 156 155 155 150 147
185 164 139 162 194 204 228 305 287 288 229 229 237 229 241 251 211 215 243 266 257 254 253 286 288 267 263 244 246 238 236 212 237 194 213 218 214 171 171 213 209 223 175 55 190 175 222 171 213 256 301 349 8 35 11 327 150 201 160 187 175 207 205 232 335 270 271 114 249 137 356 126 136 150 146 138 154 135 136 140 141 151 153 148 147 157 156 148
314 222 159 170 166 217 219 188 202 217 267 56 252 165 230 230 250 246 180 251 172 239 252 244 243 240 188 247 274 272 226 210 210 255 251 251 218 110 125 217 212 215 103 160 210 201 201 218 204 248 271 330 358 353 356 320 268 138 164 160 161 178 197 215 243 105 102 238 242 84 52 350 94 131 139 141 137 136 136 140 138 143 147 149 153 157 147 143
237 83 299 20 277 153 196 180 204 214 229 244 289 267 256 244 215 224 169 237 270 228 261 181 224 238 283 306 314 268 152 249 200 232 234 223 246 169 167 157 201 172 177 202 189 211 205 218 144 221 197 310 2 360 357 224 79 135 145 151 154 170 197 217 84 63 324 329 17 64 68 89 87 103 124 125 129 134 136 136 141 142 146 145 154 159 153 145
306 87 40 129 247 99 2 56 231 272 243 234 277 251 256 251 245 312 300 301 235 225 217 256 185 187 265 286 269 287 339 265 168 222 274 161 223 190 170 122 184 169 197 186 184 211 235 196 150 199 152 118 126 167 176 165 133 126 116 124 135 141 102 98 96 63 67 74 97 97 89 79 73 107 111 118 122 114 119 123 132 149 150 159 162 158 156 145
171 233 150 182 297 184 174 214 215 224 238 148 248 203 258 263 277 300 233 258 244 214 164 252 276 329 330 293 259 264 32 342 326 297 48 297 225 223 199 213 137 180 188 185 181 158 263 132 192 176 173 93 109 158 167 162 150 121 107 107 108 101 95 92 93 95 102 93 110 123 108 99 77 91 100 102 115 118 128 138 141 141 153 163 164 161 148 145
2 359 338 265 209 133 220 227 215 238 254 189 240 210 262 248 287 345 300 270 256 266 225 262 337 321 298 277 281 269 308 321 304 283 280 265 276 72 269 146 162 167 177 169 185 162 227 130 191 195 201 123 137 163 158 156 152 119 104 94 104 135 123 104 91 45 304 123 121 154 180 127 128 116 122 129 128 134 136 139 142 154 166 167 168 152 141 147
257 13 276 285 261 123 250 168 245 259 230 210 249 288 276 317 319 330 316 247 260 261 283 298 312 314 289 267 303 6 341 316 303 295 282 276 270 266 248 260 179 173 166 167 173 175 197 157 172 165 260 139 137 186 161 168 161 183 134 71 62 82 84 94 86 68 46 9 210 261 56 90 132 140 138 141 139 137 138 147 156 155 166 169 161 143 145 139